sat.trackr.live / text

‹ back to catalog

ONEWEB-0290

NORAD 49080 · 2021-075F

PAYLOAD ACTIVE UNKNOWN

§ Identity

Operator
Country
UK
Launch date
2021-08-21
Launch site
TYMSC
Launch vehicle
Mass (kg)
RCS (m²)

Purposes: comms

External: N2YO · Heavens-Above · Gunter

§ Orbital elements

Epoch: 2026-05-25T02:15:10.450944Z

Period
109.29 min
Inclination
87.9163°
Eccentricity
0.0001297
Mean motion
13.17649512 rev/d
Perigee alt
1,192.7 km
Apogee alt
1,194.7 km
Semi-major
7,571.8 km
B*
-2.6016e-5
RAAN
10.4455°
Arg perigee
89.5326°
Mean anomaly
270.5954°
Rev number
23,057

§ Raw data

ONEWEB-02901 49080U 21075F   26145.09387096  .00000003  00000+0 -26016-4 0  99982 49080  87.9163  10.4455 0001297  89.5326 270.5954 13.17649512230576

JSON: /api/v1/satellites/49080 · /tle

For live sub-satellite position, see the globe view (requires WebGL).

§ Visibility from observer

Set your observer location to see the next 7 days of passes ≥ 10°. The values pass through the URL so the page stays shareable.

No JS? Fill the form by hand. The geolocation button needs JavaScript.